Location: City of Moscow
(46.7306°N, 116.9989°W)
Time: 05:48:13
(UTC+00:00)

Orbus 7S? - Pass Details

Date: 22 March 2026
Orbit: 354 x 6170 km, 56.9° (Epoch: 30 September)

Event Time Altitude Azimuth Distance (km) Brightness Sun altitude
Rises 11:37:15 0° 185° (S) 10,364 9.5 -22.2°
Reaches altitude 10° 11:45:02 10° 181° (S) 9,588 9.3 -21.0°
Maximum altitude 12:19:53 51° 118° (ESE) 5,770 8.7 -15.5°
Drops below altitude 10° 12:39:58 10° 53° (NE) 5,971 9.7 -12.1°
Sets 12:43:21 0° 48° (NE) 6,442 9.9 -11.6°
